When you browse on this site, cookies collect data to enhance your experience and personalize the content and advertising you see.
Visit our Privacy Policy to learn more. By continuing to use the site, you agree to this use of cookies and data.
  • In Spain
  • List of Countries
  • For 7 days
  • Water Temperature
  • Weather Map
  • Weather Widgets
  • user-avatar
    Login

    Hourly Weather Neuquén

    Today, 30 May, Saturday

    Time Temperature Precipitation Wind Pressure Humidity
    00:00 +5°C° 1 mm 5 mps 740 mmHg 86%
    01:00 +5°C° 0 mm 5 mps 740 mmHg 86%
    02:00 +4°C° 0.4 mm 6 mps 740 mmHg 85%
    03:00 +4°C° 0.4 mm 6 mps 740 mmHg 84%
    04:00 +5°C° 0.4 mm 6 mps 739 mmHg 84%
    05:00 +5°C° 0.1 mm 6 mps 740 mmHg 79%
    06:00 +6°C° 0.1 mm 5 mps 741 mmHg 75%
    07:00 +6°C° 0 mm 5 mps 741 mmHg 70%
    08:00 +7°C° 0 mm 5 mps 741 mmHg 64%
    09:00 +7°C° 0 mm 5 mps 741 mmHg 58%
    10:00 +8°C° 0 mm 4 mps 741 mmHg 52%
    11:00 +9°C° 0 mm 5 mps 741 mmHg 49%
    12:00 +9°C° 0 mm 5 mps 741 mmHg 46%
    13:00 +10°C° 0 mm 5 mps 740 mmHg 43%
    14:00 +9°C° 0 mm 5 mps 740 mmHg 45%
    15:00 +10°C° 0 mm 4 mps 739 mmHg 47%
    16:00 +10°C° 0 mm 4 mps 739 mmHg 49%
    17:00 +8°C° 0 mm 4 mps 739 mmHg 51%
    18:00 +8°C° 0 mm 4 mps 739 mmHg 53%
    19:00 +8°C° 0 mm 3 mps 739 mmHg 55%
    20:00 +8°C° 0 mm 3 mps 739 mmHg 55%
    21:00 +7°C° 0 mm 3 mps 739 mmHg 55%
    22:00 +7°C° 0 mm 3 mps 739 mmHg 56%
    23:00 +7°C° 0 mm 3 mps 739 mmHg 55%

    Tomorrow, 31 May, Sunday

    Time Temperature Precipitation Wind Pressure Humidity
    00:00 +6°C° 0 mm 2 mps 739 mmHg 55%
    01:00 +6°C° 0 mm 2 mps 739 mmHg 54%
    02:00 +5°C° 0 mm 2 mps 739 mmHg 55%
    03:00 +6°C° 0 mm 1 mps 739 mmHg 56%
    04:00 +6°C° 0 mm 1 mps 739 mmHg 56%
    05:00 +5°C° 0 mm 1 mps 739 mmHg 56%
    06:00 +5°C° 0 mm 1 mps 739 mmHg 57%
    07:00 +5°C° 0 mm 1 mps 739 mmHg 57%
    08:00 +7°C° 0 mm 1 mps 739 mmHg 50%
    09:00 +7°C° 0 mm 0 mps 739 mmHg 43%
    10:00 +9°C° 0 mm 0 mps 739 mmHg 36%
    11:00 +10°C° 0 mm 0 mps 739 mmHg 34%
    12:00 +12°C° 0 mm 1 mps 739 mmHg 32%
    13:00 +13°C° 0 mm 1 mps 739 mmHg 30%
    14:00 +12°C° 0 mm 1 mps 739 mmHg 34%
    15:00 +12°C° 0 mm 1 mps 738 mmHg 37%
    16:00 +11°C° 0 mm 1 mps 738 mmHg 41%
    17:00 +11°C° 0 mm 1 mps 738 mmHg 42%
    18:00 +10°C° 0 mm 1 mps 739 mmHg 42%
    19:00 +10°C° 0 mm 1 mps 739 mmHg 43%
    20:00 +9°C° 0 mm 2 mps 739 mmHg 44%
    21:00 +8°C° 0 mm 2 mps 739 mmHg 45%
    22:00 +8°C° 0 mm 2 mps 738 mmHg 46%
    23:00 +7°C° 0 mm 2 mps 738 mmHg 48%

    Day after tomorrow, 1 June, Monday

    Time Temperature Precipitation Wind Pressure Humidity
    00:00 +7°C° 0 mm 2 mps 738 mmHg 49%
    01:00 +7°C° 0 mm 2 mps 738 mmHg 51%
    02:00 +6°C° 0 mm 2 mps 738 mmHg 52%
    03:00 +6°C° 0 mm 2 mps 737 mmHg 52%
    04:00 +6°C° 0 mm 2 mps 737 mmHg 53%
    05:00 +6°C° 0 mm 2 mps 737 mmHg 54%
    06:00 +6°C° 0 mm 2 mps 737 mmHg 55%
    07:00 +6°C° 0 mm 1 mps 737 mmHg 56%
    08:00 +7°C° 0 mm 2 mps 736 mmHg 51%
    09:00 +9°C° 0 mm 2 mps 736 mmHg 46%
    10:00 +12°C° 0 mm 2 mps 736 mmHg 41%
    11:00 +12°C° 0 mm 3 mps 736 mmHg 38%
    12:00 +13°C° 0 mm 3 mps 735 mmHg 36%
    13:00 +14°C° 0 mm 4 mps 734 mmHg 34%
    14:00 +13°C° 0 mm 3 mps 734 mmHg 36%
    15:00 +13°C° 0 mm 3 mps 734 mmHg 39%
    16:00 +13°C° 0 mm 2 mps 733 mmHg 41%
    17:00 +13°C° 0 mm 2 mps 733 mmHg 43%
    18:00 +12°C° 0 mm 2 mps 733 mmHg 46%
    19:00 +10°C° 0 mm 2 mps 733 mmHg 48%
    20:00 +10°C° 0 mm 2 mps 733 mmHg 49%
    21:00 +10°C° 0 mm 2 mps 733 mmHg 50%
    22:00 +9°C° 0 mm 2 mps 733 mmHg 51%
    23:00 +9°C° 0 mm 2 mps 733 mmHg 51%

    2 June, Tuesday

    Time Temperature Precipitation Wind Pressure Humidity
    00:00 +9°C° 0 mm 3 mps 733 mmHg 50%
    01:00 +9°C° 0 mm 3 mps 733 mmHg 50%
    02:00 +9°C° 0 mm 3 mps 733 mmHg 51%
    03:00 +9°C° 0 mm 3 mps 733 mmHg 52%
    04:00 +9°C° 0 mm 3 mps 733 mmHg 53%
    05:00 +8°C° 0 mm 4 mps 733 mmHg 55%
    06:00 +8°C° 0 mm 4 mps 733 mmHg 58%
    07:00 +8°C° 0 mm 4 mps 734 mmHg 60%
    08:00 +9°C° 0 mm 5 mps 734 mmHg 55%
    09:00 +11°C° 0 mm 6 mps 734 mmHg 49%
    10:00 +13°C° 0 mm 6 mps 735 mmHg 43%
    11:00 +12°C° 0 mm 7 mps 734 mmHg 40%
    12:00 +12°C° 0 mm 7 mps 734 mmHg 37%
    13:00 +14°C° 0 mm 7 mps 734 mmHg 34%
    14:00 +12°C° 0 mm 7 mps 734 mmHg 35%
    15:00 +11°C° 0 mm 6 mps 735 mmHg 35%
    16:00 +11°C° 0 mm 6 mps 735 mmHg 35%
    17:00 +10°C° 0 mm 5 mps 735 mmHg 38%
    18:00 +10°C° 0 mm 4 mps 736 mmHg 42%
    19:00 +9°C° 0 mm 3 mps 737 mmHg 45%
    20:00 +9°C° 0 mm 3 mps 738 mmHg 45%
    21:00 +8°C° 0 mm 4 mps 739 mmHg 46%
    22:00 +7°C° 0 mm 4 mps 739 mmHg 46%
    23:00 +7°C° 0 mm 5 mps 740 mmHg 54%

    3 June, Wednesday

    Time Temperature Precipitation Wind Pressure Humidity
    00:00 +5°C° 0 mm 6 mps 741 mmHg 61%
    01:00 +4°C° 0 mm 6 mps 741 mmHg 69%
    02:00 +3°C° 0 mm 6 mps 742 mmHg 71%
    03:00 +3°C° 0 mm 5 mps 742 mmHg 73%
    04:00 +3°C° 0 mm 4 mps 743 mmHg 74%
    05:00 +3°C° 0 mm 4 mps 744 mmHg 74%
    06:00 +3°C° 0 mm 3 mps 744 mmHg 74%
    07:00 +2°C° 0 mm 3 mps 745 mmHg 73%
    08:00 +3°C° 0 mm 3 mps 746 mmHg 66%
    09:00 +4°C° 0 mm 3 mps 746 mmHg 59%
    10:00 +5°C° 0 mm 3 mps 747 mmHg 52%
    11:00 +7°C° 0 mm 2 mps 746 mmHg 50%
    12:00 +8°C° 0 mm 1 mps 745 mmHg 48%
    13:00 +9°C° 0 mm 1 mps 745 mmHg 46%
    14:00 +9°C° 0 mm 1 mps 744 mmHg 47%
    15:00 +9°C° 0 mm 1 mps 744 mmHg 49%
    16:00 +9°C° 0 mm 1 mps 744 mmHg 50%
    17:00 +9°C° 0 mm 1 mps 743 mmHg 53%
    18:00 +7°C° 0 mm 2 mps 743 mmHg 56%
    19:00 +7°C° 0 mm 2 mps 743 mmHg 58%
    20:00 +6°C° 0 mm 2 mps 743 mmHg 61%
    21:00 +6°C° 0 mm 2 mps 742 mmHg 64%
    22:00 +6°C° 0 mm 2 mps 742 mmHg 68%
    23:00 +5°C° 0 mm 3 mps 742 mmHg 70%

    4 June, Thursday

    Time Temperature Precipitation Wind Pressure Humidity
    00:00 +5°C° 0 mm 3 mps 741 mmHg 72%
    01:00 +4°C° 0 mm 3 mps 741 mmHg 75%
    02:00 +4°C° 0 mm 3 mps 740 mmHg 76%
    03:00 +4°C° 0 mm 3 mps 740 mmHg 78%
    04:00 +4°C° 0 mm 3 mps 739 mmHg 80%
    05:00 +4°C° 0 mm 3 mps 739 mmHg 83%
    06:00 +4°C° 0 mm 3 mps 739 mmHg 86%
    07:00 +4°C° 0 mm 3 mps 739 mmHg 89%
    08:00 +5°C° 0 mm 4 mps 738 mmHg 80%
    09:00 +7°C° 0 mm 5 mps 738 mmHg 71%
    10:00 +9°C° 0 mm 6 mps 738 mmHg 62%
    11:00 +10°C° 0 mm 6 mps 737 mmHg 57%
    12:00 +10°C° 0 mm 6 mps 737 mmHg 53%
    13:00 +11°C° 0 mm 6 mps 736 mmHg 48%
    14:00 +12°C° 0 mm 5 mps 735 mmHg 51%
    15:00 +11°C° 0 mm 3 mps 735 mmHg 53%
    16:00 +12°C° 0 mm 2 mps 734 mmHg 56%
    17:00 +10°C° 0 mm 2 mps 734 mmHg 58%
    18:00 +10°C° 0 mm 1 mps 734 mmHg 61%
    19:00 +9°C° 0 mm 1 mps 734 mmHg 64%
    20:00 +9°C° 0 mm 1 mps 734 mmHg 65%
    21:00 +9°C° 0 mm 1 mps 734 mmHg 66%
    22:00 +8°C° 0 mm 1 mps 734 mmHg 67%
    23:00 +8°C° 0 mm 1 mps 734 mmHg 67%
    Show more